Location: State Line Observation Field
(36.5320°N, 77.5360°W)
Time: 18:48:28
(UTC-05:00)

Envisat - Visible Passes

Search period start: 05 March 2021 00:00
Search period end: 15 March 2021 01:00
Orbit: 764 x 766 km, 98.1° (Epoch: 05 March)

Date Brightness Start Highest point End Pass type
(mag) Time Alt. Az. Time Alt. Az. Time Alt. Az.
05 Mar 3.8 05:29:22 10° NNE 05:34:21 54° E 05:39:19 10° S visible
06 Mar 5.4 04:53:21 10° NE 04:57:22 23° E 05:01:21 10° SSE visible
07 Mar 3.0 05:54:39 10° N 05:59:45 83° WNW 06:04:49 10° SSW visible
08 Mar 4.4 05:18:05 10° NNE 05:22:54 42° E 05:27:40 10° S visible
09 Mar 5.8 04:42:26 10° NE 04:45:51 18° E 04:49:15 10° SE visible
10 Mar 3.2 05:43:14 10° NNE 05:48:20 77° ESE 05:53:24 10° S visible
11 Mar 4.9 05:06:53 10° NNE 05:11:25 32° E 05:15:56 10° SSE visible
12 Mar 6.0 04:31:47 10° ENE 04:34:19 14° E 04:36:51 10° ESE visible
13 Mar 3.7 05:31:52 10° NNE 05:36:54 59° E 05:41:53 10° S visible
14 Mar 5.3 05:55:46 10° NE 05:59:56 25° E 06:04:05 10° SSE visible
